Mettur Dam Water Level Live Status

On 04-03-2019: 67.210/120 Feet

Inflow 75 Cusecs

Outflow: 1000 Cusecs

Available Water: 30.35/93.47 T.M.C

Water Level: Decreasing

Mettur Dam Water Level History - click here

Mettur Dam Water Level History

14 comments

Mettur Dam Water Level History in 2018

mettur dam water level history
mettur dam water level history

மேட்டூர்  அணையின்    நீர் வரத்து   மற்றும்    நீர் வெளியேற்றம் விவரங்கள் 

Inflow and Outflow Details of Mettur Dam

இந்த குறிப்புகளில் தவறுகள் இருக்கலாம் | This Result May not 100% Exact

Date Feet Inflow Outflow T.M.C
04-03-2019 67.210 75 1000 30.35
28-02-2019 68.08 -- 1000 31.07
27-02-2019 68.55 30 1000 31.47
26-02-2019 68.55 115 1000 31.76
25-02-2019 68.79 121 1000 31.76
24-02-2019 68.90 121 1000 31.76
23-02-2019 69.01 120 1000 31.85
22-02-2019 69.12 109 1000 32.33
21-02-2019 69.23 109 1000 32.04
20-02-2019 69.34 121 1000 32.14
19-02-2019 69.45 109 1000 32.33
18-02-2019 69.56 109 1000 32.33
17-02-2019 69.67 108 1000 32.41
16-02-2019 69.84 107 1000 32.51
15-02-2019 69.84 107 1000 32.56
14-02-2019 69.90 107 1000 32.62
13-02-2019 69.96 107 1000 32.67
12-02-2019 70.02 95 1000 32.72
11-02-2019 95.08 110 1000 32.77
10-02-2019 70.14 95 1000 32.82
09-02-2019 70.20 110 1000 33.29
08-02-2019 70.26 95 1000 32.87
07-02-2019 -- -- -- --
06-02-2019 70.38 95 1000 33.03
05-02-2019 70.44 95 1000 33.08
04-02-2019 70.50 95 1000 33.13
03-02-2019 70.56 95 1000 33.18
02-02-2019 70.68 107 1000 33.29
01-02-2019 70.68 110 1000 33.29
31-01-2019 70.74 140 1000 33.41
30-01-2019 70.79 130 -- -- 33.39
29-01-2019 70.82 250 -- -- 33.41
28-01-2019 70.81 150 5000 33.40
27-01-2019 70.81 100 5000 33.40
26-01-2019 71.15 90 1250 34.19
25-01-2019 71.71 250 1000 34.19
24-01-2019 71.70 130 1030 34.27
23-01-2019 70.01 90 1030 34.27
22-01-2019 71.91 69 1,250 34.46
21-01-2019 72.04 121 1,400 34.48
20-01-2019 72.18 81 2,500 35.01
19-01-2019 72.43 72 2,500 34.82
18-01-2019 72.70 134 4,000 35.06
17-01-2019 73.09 120 4,000 35.41
16-01-2019 73.50 86 6,000 35.78
14-01-2019 74.65 66 6,000 36.81
13-01-2019 75.28 109 6,000 37.41
12-01-2019 76.30 69 11,000 38.36
11-01-2019 77.310 109 11,000 39.329
10-01-2019 78.38 100 11,000 40.28
09-01-2019 79.28 144 11,000 41.24
08-01-2019 80.240 119 11,000 42.196
07-01-2019 81.200 116 11,300 43.163
06-01-2019 82.13 -- -- 44.11
05-01-2019 82.83 160 8,300 44.84
04-01-2019 83.52 170 8,200 45.55
03-01-2019 84.20 150 8,200 46.27
02-01-2019 84.87 200 8,300 46.98
01-01-2019 85.53 290 8,300 47.69
31-12-2018 86.18 320 8,300 48.39
30-12-2018 86.36 461 8,000 49.09
29-12-2018 87.47 561 8,500 49.80
28-12-2018 88.10 503 8,500 50.51
27-12-2018 88.73 541 8,600 51.21
26-12-2018 89.36 668 8,600 51.94
25-12-2018 90.02 624 13,100 52.67
24-12-2018 90.97 750 13,100 53.77
23-12-2018 91.90 869 21,000 54.84
22-12-2018 93.09 908 21,000 56.25
21-12-2018 94.27 1,093 21,000 57.67
20-12-2018 95.42 1,000 21,000 59.07
19-12-2018 96.56 1,092 17,100 60.47
18-12-2018 97.53 1,005 13,100 61.69
17-12-2018 98.37 1,029 13,100 62.75
16-12-2018 99.20 1,160 12,500 63.80
16-12-2018 99.20 1,160 12,500 63.80
15-12-2018 101.01 1,513 12,460 64.84
14-12-2018 101.74 1,866 9,400 65.80
13-12-2018 101.25 1,993 9,400 68.47
12-12-2018 101.75 2,109 9,400 68.128
11-12-2018 102.24 2,270 8,900 68.77
10-12-2018 102.69 2,228 5,400 68.37
09-12-2018 102.91 2,529 5,400 68.66
08-12-2018 103.11 2,506 5,400 68.93
07-12-2018 103.31 2,668 5,400 69.19
06-12-2018 103.50 3,594 5,400 69.45
05-12-2018 103.63 4,099 5,592 69.63
04-12-2018 103.74 4,337 5,055 69.77
03-12-2018 103.80 4,696 3,250 69.47
02-12-2018 103.72 4,763 3,166 69.75
01-12-2018 103.63 4,347 2,750 69.27
30-11-2018 103.54 5,134 2,750 69.50
29-11-2018 103.40 5,734 2,750 69.31
28-11-2018 103.22 5,623 1,800 68.01
27-11-2018 103.03 5,665 500 68.84
26-11-2018 102.74 5,665 700 68.44
25-11-2018 102.43 5,514 700 68.03
24-11-2018 102.13 4,589 700 67.63
23-11-2018 101.89 4,643 500 67.31
22-11-2018 101.65 5,081 1,200 66.99
21-11-2018 101.41 5,020 1,600 66.69
20-11-2018 101.20 5,150 1,300 66.40
19-11-2018 100.96 4,780 1,000 66.09
18-11-2018 100.77 4,625 1,500 65.84
17-11-2018 100.58 4,670 1,000 65.59
16-11-2018 100.36 4,785 1,000 65.31
15-11-2018 100.16 4,203 1,900 65.04
14-11-2018 100.02 4,192 1,900 64.86
13-11-2018 99.88 4,378 1,900 64.68
12-11-2018 99.86 4,006 5,900 64.66
11-11-2018 100.50 5,748 5,700 64.85
10-11-2018 100.10 6,038 5,700 64.85
09-11-2018 99.950 5,971 2,700 64.77
08-11-2018 99.74 6,144 2,700 64.50
07-11-2018 99.42 6,066 800 64.09
06-11-2018 99.08 6,070 800 63.65
05-11-2018 98.74 6,008 1,100 63.22
04-11-2018 98.42 6,148 1,100 62.81
03-11-2018 98.09 5,548 1,100 62.38
02-11-2018 97.84 4,130 5,850 62.07
01-11-2018 98.040 4,072 17,850 62.329
31-10-2018 98.87 3,012 17,000 63.38
30-10-2018 99.88 2,538 17,850 64.68
29-10-2018 100.91 2,989 17,000 66.02
28-10-2018 101.90 3,012 13,000 67.32
27-10-2018 102.88 3,926 17,800 68.62
26-10-2018 103.76 4,406 13,700 69.80
25-10-2018 104.37 5,783 13,700 70.62
24-10-2018 104.89 9,035 13,000 71.32
23-10-2018 105.20 14,232 13,700 71.74
22-10-2018 105.18 17,994 13,000 71.71
21-10-2018 104.92 20,933 13,000 71.36
20-10-2018 104.47 21,150 13,000 70.75
19-10-2018 104.07 21,000 13,700 70.21
18-10-2018 103.37 23,000 13,700 69.27
17-10-2018 103.31 10,042 13,700 68.91
16-10-2018 103.35 6,191 13,700 69.25
15-10-2018 103.82 7,644 10,700 69.88
14-10-2018 104.03 8,258 9,688 70.16
13-10-2018 104.18 13,047 7,700 70.36
12-10-2018 103.85 11,402 7,700 69.92
11-10-2018 103.61 8,848 5,300 69.60
10-10-2018 103.37 7,080 1,300 69.27
09-10-2018 103.03 7,030 1,600 68.82
08-10-2018 102.67 6,961 1,600 68.34
07-10-2018 102.32 6,014 1,200 67.88
06-10-2018 102.02 5,471 1,600 67.18
05-10-2018 101.79 4,384 3,600 67.18
04-10-2018 102.62 6,456 18,600 68.28
04-10-2018 101.85 4,033 15,641 67.26
02-10-2018 103.55 10,136 20,600 69.52
01-10-2018 104.21 14,143 20,600 70.40
30-09-2018 104.27 16,545 10,600 70.49
29-09-2018 104.07 23,353 24,600 70.21
28-09-2018 104.36 23,064 24,600 70.60
27-09-2018 104.41 20,240 22,800 70.75
26-09-2018 104.59 23,000 22,800 70.91
25-09-2018 104.47 5,023 22,800 70.75
24-09-2018 105.62 5,423 22,800 72.317
23-09-2018 106.73 6,099 22,800 73.83
22-09-2018 107.79 6,608 22,800 75.30
21-09-2018 108.81 8,078 22,800 76.73
20-09-2018 109.73 9,096 22,800 78.02
19-09-2018 110.58 9,119 22,800 79.23
18-09-2018 111.42 8,483 22,800 80.44
17-09-2018 112.29 8,182 22,800 81.705
16-09-2018 113.17 7,499 22,800 82.49
15-09-2018 114.08 7,522 22,800 84.34
14-09-2018 114.98 7,337 22,800 85.68
13-09-2018 115.88 7,153 22,800 87.05
12-09-2018 117.55 6,090 20,000 88.32
11-09-2018 117.55 6,193 20,800 89.61
10-09-2018 118.38 6,043 20,800 90.91
09-09-2018 119.06 6,193 15,000 91.97
08-09-2018 119.60 6,000 15,000 92.83
07-09-2018 119.95 6,000 6,800 93.39
06-09-2018 120.01 6,000 6,800 93.48
05-09-2018 120.09 7,000 6,800 93.61
04-09-2018 120.14 8,500 6,800 93.63
03-09-2018 120.18 15,000 14,800 93.75
02-09-2018 120.19 21,000 20,800 93.76
01-09-2018 120.11 21,000 19,800 93.64
31-08-2018 120.40 17,500 17,800 93.53
30-08-2018 119.83 8,000 6,800 93.20
29-08-2018 119.82 8,000 15,800 93.18
28-08-2018 120.05 22,000 20,800 93.55
27-08-2018 120.04 28,000 27,800 93.53
26-08-2018 120.810 26,000 25,800 93.48
25-08-2018 120.00 20,742 20,800 93.47
24-08-2018 120.02 22,290 24,326 93.50
23-08-2018 120.19 16,000 35,800 93.77
22-08-2018 120.21 70,000 65,800 93.80
21-08-2018 119.25 70,000 40,000 92.28
20-08-2018 119.53 1,95,000 2,01,000 92.72
19-08-2018 119.99 1,95,000 2,05,000 93.45
18-08-2018 120.05 2,00,000 2,00,000 93.55
17-08-2018 120.25 1,70,000 1,70,000 93.85
16-08-2018 120.33 1,70,000 1,70,000 93.60
15-08-2018 120.25 1,30,000 1,25,000 93.87
14-08-2018 120.31 89,015 88,158 93.96
13-08-2018 120.30 1,14,000 1,11,000 93.95
12-08-2018 120.20 1,35,000 1,35,000 93.79
11-08-2018 119.08 88,848 47,500 92.01
10-08-2018 116.85 16,969 29,100 88.53
09-08-2018 117.50 8,311 20,141 89.53
08-08-2018
07-08-2018 118.61 10,429 19,100 91.27
06-08-2018 119.60 11,633 19,100 91.97
05-08-2018 119.44 15,487 19,100 92.58
04-08-2018 119.61 16,605 18,933 92.85
03-08-2018 119.00 --.-- --.-- 93.--
02-08-2018 119.98 14,461 18,400 93.43
01-08-2018 120.04 20,495 20,899 93.53
31-07-2018 120.09 23,501 25,171 93.61
30-07-2018 120.16 26,376 28,000 93.72
29-07-2018 120.25 59,135 59,714 93.87
28-07-2018 120.30 68,500 68,000 93.95
27-07-2018 120.31 61,291 60,000 93.96
26-07-2018 120.29 48,065 46,462 93.93
25-07-2018 120.22 80,291 76,611 93.822
24-07-2018 120.40 75,170 75,700 93.470
23-07-2018 119.41 68,489 30,000 92.53
22-07-2018 117.98 61,644 20,000 88.73
21-07-2018 114.63 64,594 20,000 85.16
20-07-2018 112.04 59,964 20,000 83.33
19-07-2018 109.02 1,01,227 20,000 79.04
18-07-2018 102.68 1,04,436 1,000 68.36
17-07-2018 95.73 1,07,064 1,000 59.44
16-07-2018 87.92 60,120 1,000 50.30
15-07-2018 83.20 45,316 1,000 45.22
14-07-2018 79.45 46,613 1,000 41.41
13-07-2018 75.36 38,916 1,000 37.48
12-07-2018 71.76 34,426 1,000 34.23
11-07-2018 68.42 32,284 1,000 31.36
10-07-2018 65.15 14,334 1,000 28.67
09-07-2018 63.72 1,533 1,000 27.53
08-07-2018 63.68 4,165 1,000 27.50
07-07-2018 63.46 5,074 1,000 27.33
06-07-2018 63.03 5,122 1,000 26.99
05-07-2018 62.59 5,908 1,000 26.25
04-07-2018 62.06 7,004 1,000 26.24
03-07-2018 61.40 10,792 1,000 25.74
02-07-2018 60.30 18,824 1,000 24.91
01-07-2018 58.23 10,383 1,000 23.38

Useful Links:

Mettur Dam Water Level Today

Mettur Dam Water Level History

Tourism in Mettur Dam

About Mettur

About Mettur Dam

Mettur Dam History

About Diabetes and Treatments

List of Important Government Websites

How to Increase Bike Mileage

Importance of Insurance

Major Reserviors in Tamilnadu

Tamil units of Measurements

Methods of Rain Water Harvesting

Mettur Park Timings

Arulmigu Padrakali Amman Temple Mecheri

Tourist Places in Mettur

About Dengue Fever

Contact Us

14 comments:

  1. This comment has been removed by the author.

    ReplyDelete
  2. Hi bro if possible please update water level in morning, afternoon and evening

    ReplyDelete
    Replies
    1. Sure, we collecting data from All water flows in tamilnadu... will update later

      Delete
  3. Can you provide details of amts of water let out to cauveri mainstream and surplus to kollidam?

    ReplyDelete
    Replies
    1. Sorry Bro... we not getting exact data's... if we will get it... surely update it

      Delete
  4. Appreciate your service of providing the data daily about Metter Dam. Can you include Amaravathi and Bhavani dam also as they are tributaries of Cauvery. Thanks

    ReplyDelete
  5. Good one... Can you please include Bhavani Dam if possible.

    ReplyDelete
  6. Wish to travel along the water front in the storage area and go upto hogenakkal. Is there a road for driving a car ? Also want to see where the river joins the dam storage area. I think it is in a place called Nagamarai. Similarly wish travel from Hogenakkal to mettur on the other side making a full round of the entire water storage area. Advice

    ReplyDelete
    Replies
    1. ya its possible... better you can arrange your own vechicle... but be safe .....enjoy your trip...

      Delete
  7. please check this site for all Karnataka reservoir status https://www.ksndmc.org/Uploads/RL.pdf

    However Tamilnadu never bothered to maintain such details and in their daily data they are providing maximum storage details every day as if it is changing every day. atleast you guys update and maintain the details for public what the TN government is pathetically failing in

    ReplyDelete
    Replies
    1. http://164.100.167.12/pwd/public_view.php have fun guys

      Delete
  8. nothing like anything.........mettur diary team always great.... really appreciate... thanks guys

    ReplyDelete